Location: Unspecified
(0.0000°N, 0.0000°E)
Time: 23:59:10
(UTC+01:00)

Atlas Centaur 2 - Visible Passes

Search period start: 26 November 2014 00:00
Search period end: 06 December 2014 00:00
Orbit: 460 x 1327 km, 30.4° (Epoch: 26 November)

Date Brightness Start Highest point End Pass type
(mag) Time Alt. Az. Time Alt. Az. Time Alt. Az.
01 Dec 4.8 20:56:21 10° NNW 20:57:20 12° NNW 20:57:20 12° NNW visible
02 Dec 4.5 20:54:20 10° NNW 20:56:53 18° N 20:56:53 18° N visible
03 Dec 4.1 20:52:31 10° NNW 20:56:35 25° N 20:56:35 25° N visible
04 Dec 3.6 20:50:49 10° NW 20:56:28 36° N 20:56:28 36° N visible
05 Dec 3.0 20:49:15 10° NW 20:56:34 54° N 20:56:34 54° N visible
